Regional Weather Roundup
Issued by NWS

Home | Current Version | Previous Version | Graphics & Text | Print | Product List | Glossary On
Versions: 1 2 3 4 5 6 7 8 9 10 11 12 13 14 15 16 17 18 19 20 21 22 23 24 25 26 27 28 29 30 31 32 33 34 35 36 37 38 39 40 41 42 43 44 45 46 47 48 49 50
000
ASUS45 KBOI 110210
RWRID

IDAHO REGIONAL WEATHER ROUNDUP
NATIONAL WEATHER SERVICE BOISE ID
700 PM MST WED FEB 10 2016

NOTE: "FAIR" INDICATES FEW OR NO CLOUDS BELOW 12000 FEET
WITH NO SIGNIFICANT WEATHER AND/OR OBSTRUCTIONS TO VISIBILITY

IDZ012-014-110300-
SOUTHWEST IDAHO


CITY           SKY/WX    TMP DP  RH WIND       PRES   REMARKS
BOISE          PTCLDY    36  31  82 CALM      30.42S
CALDWELL       PTCLDY    35  31  85 W6        30.45S WCI  30
MOUNTAIN HOME  CLEAR     33  30  88 NW2       30.42R
$$

IDZ016-017-110300-
SOUTHCENTRAL IDAHO


CITY           SKY/WX    TMP DP  RH WIND       PRES   REMARKS
BURLEY         CLEAR     31  27  85 NW5       30.36R WCI  26
JEROME         CLEAR     29  24  82 NE14      30.38S WCI  18
TWIN FALLS     CLEAR     31  29  92 CALM      30.37S
$$

IDZ019>023-110300-
SOUTHEAST IDAHO


CITY           SKY/WX    TMP DP  RH WIND       PRES   REMARKS
IDAHO FALLS    CLOUDY    17  14  88 N3        30.39F
POCATELLO      CLOUDY    26  23  88 N5        30.40F WCI  20
REXBURG        CLOUDY    25  20  81 CALM      30.38F
$$

IDZ006-010-011-018-031-032-110300-
CENTRAL IDAHO MOUNTAINS


CITY           SKY/WX    TMP DP  RH WIND       PRES   REMARKS
MCCALL         CLOUDY    35  28  75 NW5       30.34S WCI  31
HAILEY         PTCLDY    27  23  86 CALM      30.40R
STANLEY          N/A     27  20  75 VRB3      30.36R
SALMON         CLOUDY    21  16  79 SE5       30.39R WCI  15
CHALLIS        PTCLDY    20  15  81 S3        30.36R
$$

IDZ002-004-006-007-026-110300-
NORTHERN IDAHO


CITY           SKY/WX    TMP DP  RH WIND       PRES   REMARKS
LEWISTON       CLOUDY    50  34  54 SE5       30.29R
LOWELL           N/A     43  38  82 CALM      30.32S
COEUR D`ALENE  CLOUDY    37  34  87 CALM      30.22S
MULLAN PASS    CLOUDY    37  29  72 W10G18    30.23S WCI  30
$$



USA.gov is the U.S. government's official web portal to all federal, state and local government web resources and services.